GEFSGL_500_meanwind_210.txt.gz
Wind_Speed
12 12 12 12 12 12 12 10 9 9 9 9 9 9 10 10 11 11 11 11 11 11 11 12 12 13 13 14 14 14 15 16 17 17 19 19 20 20 21 21 22 22 23
13 13 13 12 12 12 12 10 10 10 10 9 9 10 10 11 11 11 11 12 12 12 12 13 13 14 14 15 15 15 16 17 17 18 19 20 20 20 20 22 23 23 24
13 13 13 13 13 13 12 11 11 11 10 10 10 10 11 11 11 11 11 12 13 13 13 13 14 15 15 15 16 16 17 17 18 19 20 21 21 21 22 22 23 24 24
14 13 13 14 13 13 14 13 12 12 11 11 11 11 11 11 12 12 12 12 13 14 14 15 15 16 16 16 17 17 18 18 19 19 20 20 21 22 23 23 24 25 25
14 14 14 14 14 14 14 14 14 14 13 13 12 12 13 13 13 13 13 13 13 14 15 16 16 17 18 18 18 19 19 20 20 20 20 20 21 22 23 24 25 25 26
14 14 15 15 15 15 15 15 15 14 14 14 14 14 14 14 14 14 14 14 15 15 16 17 17 18 18 19 20 20 20 20 20 20 21 21 22 23 23 25 26 26 27
16 16 15 16 16 16 16 16 15 15 15 15 15 15 15 15 15 15 15 16 16 17 18 18 19 20 20 20 21 21 21 21 22 23 23 24 24 25 25 26 27 28 29
17 17 16 16 16 17 17 16 16 16 16 17 17 17 16 16 16 16 16 17 18 19 20 20 20 21 22 22 22 22 23 23 24 24 25 26 26 27 28 29 30 30 31
18 18 17 17 17 17 18 18 17 17 18 19 18 17 16 16 16 17 18 18 19 20 20 22 22 22 23 24 24 25 25 26 26 26 27 28 28 30 30 31 31 31 32
18 18 17 17 17 18 18 18 19 19 19 19 17 17 17 17 17 18 18 19 20 20 22 22 23 23 24 24 24 25 26 27 27 28 28 29 30 30 31 31 32 32 33
19 18 18 18 19 19 19 19 20 20 18 17 16 16 17 17 18 19 20 20 21 22 23 23 24 24 24 25 25 26 27 28 29 29 30 30 30 31 31 32 33 33 33
20 19 18 19 20 20 20 20 20 19 17 17 17 17 17 18 18 19 21 21 22 23 23 24 25 26 27 27 28 28 29 30 30 31 31 31 31 31 32 32 33 33 33
20 19 19 20 20 20 20 20 20 19 18 17 17 18 18 18 19 20 21 22 22 23 24 25 26 27 28 29 29 30 30 31 31 31 31 31 31 32 32 33 33 33 33
20 20 21 21 22 21 21 20 20 20 20 19 19 18 19 19 20 20 21 22 23 24 25 26 27 28 29 29 30 31 31 31 31 31 31 31 32 32 33 34 34 34 34
22 22 23 23 23 23 22 21 21 21 20 20 20 20 20 20 21 21 22 23 24 25 26 27 28 29 29 30 31 32 32 32 32 32 33 33 33 33 34 35 35 35 35
24 24 25 24 24 23 22 22 22 23 22 22 21 21 21 21 22 23 24 25 26 27 27 28 29 30 31 32 32 32 32 33 33 34 34 34 34 34 34 35 35 35 35
25 26 25 24 23 23 23 23 23 24 23 23 22 22 22 23 24 25 25 26 27 28 28 29 30 31 32 33 33 33 33 34 34 35 35 35 35 35 35 35 35 35 35
27 27 26 25 25 25 25 25 25 25 25 24 24 24 24 25 26 26 27 27 28 29 30 31 31 32 32 33 33 33 34 34 35 35 35 35 35 35 36 35 35 34 34
28 28 27 27 26 26 27 27 27 27 26 26 26 25 25 26 27 27 28 28 29 30 31 32 32 32 32 32 33 34 34 35 35 35 34 34 35 35 35 35 34 34 33
29 28 29 28 28 28 28 28 28 28 27 27 27 27 26 27 27 28 28 29 30 31 31 32 32 33 32 33 34 34 35 35 35 35 35 35 35 35 35 35 34 34 33
30 30 30 29 29 29 29 30 30 28 27 27 28 27 27 28 28 28 29 30 31 31 32 33 34 34 33 34 34 35 36 36 36 35 35 35 35 35 35 34 34 33 32
31 31 31 30 30 30 30 30 29 28 27 28 28 27 27 28 28 29 30 30 31 33 34 34 35 35 35 35 35 36 36 36 36 35 35 35 35 35 34 34 33 32 32
32 32 32 31 31 31 31 30 29 29 29 29 28 28 28 28 29 30 31 32 33 33 34 35 35 35 35 35 35 35 36 36 36 36 35 35 34 34 33 33 33 33 33
32 32 32 32 31 31 31 30 30 30 30 30 30 30 29 29 30 31 32 33 33 34 35 35 35 35 35 35 35 35 35 35 35 35 35 35 35 34 33 33 33 33 33
32 32 32 31 31 31 30 30 30 31 31 30 30 30 30 30 31 32 32 32 33 34 35 35 35 35 35 35 35 35 35 35 35 34 35 35 34 34 34 34 34 33 33
33 32 31 31 30 30 30 30 30 30 30 30 31 30 30 30 31 31 31 32 33 34 35 35 35 35 35 35 35 35 35 35 34 34 34 34 34 34 34 34 34 33 32

GEFSGL_500_meanwind_216.txt.gz
Wind_Speed
8 8 8 8 7 7 7 7 6 6 7 6 7 7 7 7 7 7 7 8 9 9 10 10 10 10 11 11 12 12 13 13 13 13 14 16 16 17 18 19 20 20 21
9 8 8 8 8 8 8 8 8 7 7 7 8 8 7 7 8 8 9 9 10 10 11 11 11 11 12 13 13 14 14 14 15 16 16 17 18 19 20 20 20 21 21
9 8 8 9 9 10 9 9 9 9 8 8 9 8 8 8 9 9 9 10 10 11 11 11 12 12 13 13 14 14 15 15 16 17 18 18 19 19 20 21 21 22 22
9 9 9 10 10 10 10 10 10 10 9 10 10 10 10 10 10 10 11 11 11 11 12 12 12 13 13 13 14 15 15 16 17 18 19 19 19 20 21 22 23 24 24
9 9 10 10 11 11 10 10 11 11 11 11 11 11 11 11 11 12 12 12 12 12 13 13 13 13 14 14 15 16 16 17 18 19 19 20 21 22 22 23 23 24 25
11 11 11 12 12 12 11 11 11 12 12 12 12 12 12 12 13 13 13 13 13 14 14 14 13 14 15 16 16 17 17 18 19 20 20 21 22 23 23 24 25 25 26
12 13 13 13 12 11 11 12 12 13 13 13 13 13 13 14 14 14 14 14 14 14 14 14 14 15 16 17 18 18 19 20 21 21 22 22 23 24 24 26 26 27 28
12 13 13 13 12 12 11 12 13 14 14 14 14 14 14 14 14 14 14 14 14 14 15 15 16 16 17 18 19 20 21 21 22 22 23 23 24 24 25 26 27 28 28
13 13 14 13 13 13 13 12 13 14 14 14 15 15 15 14 14 14 14 14 15 15 16 17 17 18 19 20 20 21 21 21 22 23 24 24 25 26 27 27 28 29 30
13 14 14 13 13 13 14 14 14 14 15 15 15 15 15 14 14 14 15 15 16 16 17 18 18 19 20 20 21 22 22 23 24 24 25 26 27 27 28 29 29 29 30
14 15 14 14 14 15 15 15 15 15 15 15 15 16 15 15 15 15 16 16 16 17 17 18 19 20 21 21 22 23 24 25 25 26 27 28 28 29 29 30 30 30 31
16 16 16 16 16 16 16 16 17 17 17 16 16 16 16 16 16 16 16 17 17 18 18 19 20 21 21 22 23 24 25 26 26 27 28 29 29 30 31 31 31 31 31
17 17 17 17 17 17 17 17 18 18 17 17 17 17 17 17 17 17 17 18 19 19 20 21 21 21 22 23 24 24 25 26 28 28 29 29 30 31 32 32 32 32 33
19 18 18 18 18 18 18 18 18 18 17 17 18 18 19 19 19 19 19 20 20 21 21 22 22 23 23 24 25 26 27 28 29 29 30 30 31 32 33 33 33 33 34
20 19 19 20 20 20 20 19 19 19 19 19 19 20 20 20 20 21 22 22 22 22 22 23 23 24 24 25 26 28 29 30 30 31 31 32 32 33 33 34 34 34 35
22 22 22 22 22 22 21 21 21 21 21 21 21 21 21 21 21 22 22 23 23 23 23 24 24 25 26 27 28 29 30 31 32 32 32 33 33 33 34 35 35 35 35
23 23 23 23 23 23 22 22 22 22 22 23 23 23 23 22 22 22 23 24 24 24 25 25 26 26 27 28 29 30 31 32 33 33 33 34 34 35 35 36 36 35 35
24 24 23 24 23 23 23 23 23 24 24 24 24 24 24 23 23 24 24 24 25 25 26 26 27 27 28 29 30 31 32 33 33 33 34 35 35 35 36 36 36 35 35
26 25 24 24 24 24 24 24 24 24 25 25 25 25 24 24 24 24 24 25 25 26 26 27 28 29 30 31 31 32 33 33 34 34 35 35 36 36 36 36 36 35 35
26 26 26 26 26 25 25 25 25 26 26 25 25 25 25 25 25 26 26 26 26 27 27 28 29 30 31 32 33 33 34 34 35 35 36 36 36 37 36 36 36 35 35
27 27 28 28 27 27 26 26 27 27 27 27 27 26 27 27 27 27 27 27 27 28 28 30 31 32 32 33 34 34 35 36 36 36 37 37 37 37 36 36 36 35 35
28 28 28 28 29 29 29 28 28 28 29 29 29 28 28 28 28 28 28 28 28 29 30 32 33 33 33 34 34 35 36 37 37 38 37 37 37 37 37 36 36 35 34
29 29 29 29 30 30 30 30 30 30 30 29 29 29 29 29 29 29 29 30 30 31 31 32 33 34 33 33 35 36 36 37 37 37 37 37 37 37 36 36 35 35 35
29 29 29 29 30 30 30 30 30 30 29 29 30 30 30 30 29 29 29 30 31 31 31 32 33 34 34 35 36 37 37 37 37 37 37 36 36 36 36 35 35 35 34
30 29 29 29 30 30 30 30 30 29 29 30 30 30 29 29 30 29 29 29 30 31 31 32 33 34 35 36 36 37 37 37 37 37 36 36 36 36 35 35 35 34 33
29 29 29 30 30 30 30 29 29 29 29 29 29 29 30 30 30 29 28 29 30 31 32 33 34 35 35 36 36 37 37 37 36 36 36 36 36 36 35 35 34 34 33

GEFSGL_500_meanwind_222.txt.gz
Wind_Speed
10 10 10 9 9 9 8 8 8 8 9 8 8 8 8 9 9 10 10 11 11 11 12 12 12 13 13 13 14 14 15 16 17 17 18 19 20 20 20 21 22 23 23
10 10 10 10 9 9 9 9 9 10 10 9 9 9 9 10 10 11 11 12 12 13 13 13 14 14 14 14 15 16 16 17 18 18 19 20 20 21 21 22 23 23 25
11 10 11 10 10 9 10 11 11 11 11 10 10 10 10 11 11 11 12 13 14 14 14 14 14 14 14 15 16 17 17 18 18 19 20 20 20 21 21 23 24 25 26
11 10 11 11 11 11 11 11 12 11 11 11 11 11 11 11 12 12 13 14 14 15 15 15 14 14 15 16 17 17 18 18 18 20 20 21 20 21 22 23 24 25 25
11 11 11 11 11 11 11 12 12 12 11 11 12 12 12 12 13 13 13 14 14 15 15 14 15 16 16 17 18 18 19 19 20 20 21 21 21 22 23 24 24 24 25
12 11 12 13 13 12 12 12 12 12 12 13 13 13 13 13 13 13 14 14 14 14 14 15 16 16 17 18 18 19 19 20 20 21 21 21 22 23 23 24 24 25 26
13 12 13 14 13 13 13 13 13 13 14 14 14 14 13 14 14 14 14 14 14 14 15 15 16 16 17 18 18 19 20 20 20 21 22 22 23 24 24 24 25 26 26
14 13 13 14 14 14 14 14 14 15 15 14 14 14 14 15 15 14 14 14 14 14 15 16 16 17 18 19 19 19 19 20 21 21 22 23 24 24 25 26 27 27 28
15 15 15 15 15 15 15 15 15 15 15 15 15 16 16 16 16 15 14 14 15 15 16 17 17 18 18 19 19 19 20 21 22 22 23 24 25 25 26 27 28 29 29
16 17 17 16 15 16 16 16 16 16 16 16 17 17 17 17 16 16 16 16 16 16 17 17 17 18 18 19 19 20 21 22 22 23 24 25 26 27 28 28 29 29 30
18 17 17 16 16 17 17 17 17 17 17 17 17 17 17 17 17 17 17 18 17 17 18 18 19 19 20 20 21 21 22 23 24 25 25 26 27 28 29 29 30 30 31
20 19 17 16 17 18 18 18 19 18 18 18 18 18 18 18 18 18 18 18 18 19 19 20 20 20 21 22 22 23 23 24 25 26 27 28 29 29 30 30 30 31 31
21 19 18 17 18 19 19 19 19 19 19 19 19 19 19 19 19 19 19 19 20 20 21 21 22 22 23 23 23 24 25 26 27 28 29 29 30 30 31 31 32 32 33
22 20 20 20 20 20 20 21 21 21 21 21 21 21 21 20 20 20 20 21 21 22 23 23 23 24 24 24 25 26 27 27 28 29 30 30 31 32 32 33 33 33 33
24 23 23 22 23 22 22 22 22 22 22 22 22 22 22 21 21 21 21 22 22 23 24 24 24 25 25 26 26 27 28 28 29 30 31 31 32 33 33 34 34 34 34
25 24 24 24 25 24 24 23 23 23 23 23 23 23 22 23 23 23 23 23 24 24 24 24 25 26 26 27 28 29 30 30 30 31 31 32 33 33 34 35 35 35 35
28 27 25 25 25 25 25 24 24 24 25 25 24 24 24 25 25 25 25 24 24 25 25 26 27 27 27 28 29 30 31 31 31 32 33 34 34 35 35 36 36 36 37
28 28 28 27 26 26 26 26 25 25 25 25 25 26 26 26 26 26 26 26 26 27 27 28 29 29 29 30 31 32 32 33 33 34 35 35 36 36 36 37 37 37 37
29 28 27 27 27 27 28 27 26 26 26 26 26 26 27 27 27 28 28 28 28 29 29 29 30 31 31 32 33 33 34 35 35 35 36 37 37 37 37 37 37 38 38
29 29 29 28 29 29 29 27 27 27 28 28 28 28 28 28 29 29 29 30 30 30 31 32 32 32 33 34 34 35 35 35 36 37 38 38 38 38 38 38 38 38 38
30 30 30 30 30 29 29 28 28 29 29 29 29 30 30 30 30 30 31 31 31 32 32 33 33 33 34 35 35 36 36 36 37 37 38 39 39 38 38 38 38 38 37
30 30 31 31 30 30 29 29 29 30 30 30 31 30 30 30 31 31 31 31 32 32 33 33 34 35 35 35 36 36 37 37 37 38 38 38 38 38 37 37 38 38 37
31 31 31 31 30 29 29 29 30 30 31 31 31 31 31 31 32 31 31 32 33 33 34 34 34 35 35 35 36 36 37 37 38 38 38 38 38 38 37 38 38 37 37
30 30 30 31 30 30 30 30 30 30 31 31 31 31 32 32 32 32 32 33 33 34 34 34 34 34 34 35 36 36 36 36 37 37 38 38 38 38 37 37 37 37 37
29 29 30 30 30 30 30 31 31 31 31 31 31 32 32 33 33 33 33 34 34 34 34 33 32 33 34 35 35 35 36 37 38 38 38 38 37 37 36 36 36 37 37
29 30 30 30 29 29 30 30 31 31 31 31 31 32 33 33 33 34 34 33 33 33 33 33 33 33 34 34 35 36 37 38 38 38 37 37 36 37 37 36 36 36 36

GEFSGL_500_meanwind_228.txt.gz
Wind_Speed
8 8 9 9 9 9 9 9 8 9 9 9 10 10 11 11 11 11 11 11 11 11 12 12 13 13 14 14 13 13 14 14 15 15 16 16 17 17 18 18 19 20 21
8 8 9 9 9 10 10 9 9 9 10 10 10 11 12 12 12 12 12 11 12 12 12 13 13 13 14 14 14 15 15 16 16 16 17 17 18 18 18 19 20 21 22
8 9 9 10 10 10 10 10 10 10 10 10 11 12 13 12 12 13 12 12 13 13 13 13 14 14 14 15 15 16 16 17 17 17 17 18 18 19 19 20 20 22 23
9 9 10 10 11 11 11 11 11 11 12 12 12 13 13 13 13 13 13 13 14 14 14 14 14 14 14 15 15 16 16 17 17 17 17 18 18 19 19 21 21 23 24
10 11 11 11 11 11 12 12 12 12 12 13 13 14 14 14 14 13 14 14 14 14 15 15 14 14 14 14 15 15 16 16 17 17 17 18 19 19 20 22 22 23 24
11 12 12 11 11 12 13 13 13 13 13 14 14 14 15 15 15 14 14 14 14 14 15 15 14 15 15 15 15 16 16 17 17 17 18 18 19 20 21 22 23 24 24
13 13 13 12 12 13 13 14 14 14 14 14 15 15 16 16 16 16 15 15 14 14 15 15 15 15 15 15 15 16 16 17 17 17 18 19 20 21 22 23 24 24 25
13 13 13 13 14 14 15 14 14 15 15 15 15 16 16 16 17 17 16 16 16 15 15 16 16 15 16 16 16 16 17 17 18 18 19 20 21 22 23 24 25 26 26
14 14 14 15 15 15 15 16 16 16 17 16 16 16 16 17 17 17 17 17 17 16 16 16 16 16 16 17 17 18 18 19 19 20 21 22 23 24 25 25 26 27 27
15 15 15 16 16 16 16 17 17 18 18 17 17 17 17 17 18 18 17 17 17 17 17 17 17 17 18 18 19 19 19 20 21 22 22 23 24 25 25 26 27 27 28
17 17 17 17 17 18 18 18 19 19 19 18 18 18 18 18 18 19 19 18 18 18 18 19 18 19 20 20 20 21 21 22 23 23 23 24 25 26 27 27 28 28 29
19 19 19 19 19 19 19 20 20 21 20 20 19 19 20 20 20 20 20 20 20 20 20 20 21 21 22 22 23 23 23 23 24 24 25 26 26 27 28 28 29 30 30
22 22 22 21 22 22 22 22 22 23 22 22 22 21 21 21 21 21 21 21 21 21 21 22 22 23 23 24 24 24 25 25 26 26 26 27 28 28 29 30 30 31 31
24 24 24 24 24 24 24 24 25 25 25 25 25 24 23 22 22 22 22 22 22 22 22 23 23 23 24 24 24 25 26 27 27 27 28 28 29 30 30 31 32 33 33
26 26 26 25 26 26 26 26 26 26 25 26 25 25 24 24 23 24 24 24 24 24 24 24 24 25 25 26 26 27 27 28 28 28 29 30 30 31 32 32 33 34 34
28 28 27 27 27 27 27 27 27 26 26 26 26 26 25 24 24 25 26 26 26 26 26 26 26 26 27 27 28 28 29 29 29 30 31 32 32 33 33 34 35 35 36
29 29 28 29 28 28 28 27 27 26 26 26 26 25 25 25 26 26 27 27 27 28 28 28 28 28 28 28 29 30 30 30 31 32 32 33 33 34 34 35 36 37 37
30 30 29 29 29 29 28 27 27 27 27 27 27 26 26 26 26 27 28 29 29 29 29 29 29 30 30 30 31 32 32 32 32 33 33 34 34 35 36 37 37 37 37
32 32 31 30 30 29 29 28 28 28 28 28 28 28 27 28 28 29 29 29 30 31 31 31 31 31 32 32 32 33 33 33 34 34 34 35 35 35 36 37 37 37 37
31 31 30 30 30 30 29 29 29 29 29 29 30 30 30 29 29 30 30 30 31 32 32 32 32 33 33 33 33 34 34 34 35 35 35 35 35 36 37 37 37 37 37
31 30 30 30 30 30 30 30 30 30 31 31 31 32 32 31 31 31 32 32 32 32 32 33 34 34 34 35 35 35 35 34 34 35 35 35 35 36 36 36 36 35 35
32 32 32 32 32 31 31 31 32 32 32 33 33 33 33 33 33 33 33 34 34 34 34 34 34 35 35 35 35 35 35 35 35 34 34 34 35 35 35 35 35 35 36
34 33 32 31 31 31 31 32 33 33 33 33 33 33 33 34 34 34 34 34 34 34 34 35 35 35 35 36 36 35 34 34 34 34 34 34 35 35 35 35 35 36 36
33 33 32 32 31 31 31 32 33 33 33 33 33 34 34 34 33 33 34 34 35 35 35 34 34 35 35 35 35 34 33 34 34 34 34 35 35 35 35 35 35 35 35
32 32 32 31 31 31 32 32 32 32 33 33 33 33 34 33 33 34 34 35 35 35 35 35 35 34 34 34 34 34 33 34 34 34 34 34 34 35 35 35 35 35 35
31 31 31 31 31 31 31 30 30 31 31 31 32 32 33 33 33 34 34 35 35 35 35 35 35 35 34 34 34 34 33 33 33 34 34 34 34 35 35 35 35 35 35

GEFSGL_500_meanwind_234.txt.gz
Wind_Speed
10 10 10 9 9 10 11 11 11 11 11 11 11 11 11 11 11 11 11 12 12 12 12 13 13 13 14 14 14 14 14 14 14 15 16 16 15 16 16 16 17 17 18
10 10 10 9 10 10 11 11 12 12 12 12 12 12 12 12 12 12 13 12 12 13 13 13 13 13 14 14 14 14 14 14 14 15 15 16 16 17 17 17 17 18 19
10 10 10 10 11 11 12 12 12 13 13 13 13 13 13 12 12 13 13 13 13 14 14 14 14 14 14 15 15 15 15 15 15 16 16 17 17 17 17 17 17 18 19
11 11 11 11 12 13 13 13 13 14 14 14 14 14 14 13 13 13 14 14 15 15 14 14 15 15 16 16 15 15 15 16 16 16 17 16 17 17 17 18 19 19 20
11 11 12 12 12 13 14 14 14 15 15 15 15 15 14 14 14 15 15 15 16 16 16 15 15 16 16 16 16 16 16 16 16 15 16 16 17 17 18 19 19 21 22
12 13 13 13 14 15 15 15 15 16 16 16 15 15 15 15 15 16 16 17 17 17 17 16 16 16 17 17 17 16 16 16 16 16 16 16 17 18 18 19 20 21 22
13 14 14 14 15 15 16 16 16 16 16 16 16 16 17 17 17 17 17 17 17 17 17 17 17 17 17 17 17 17 17 17 17 17 17 17 18 19 20 21 22 22 24
15 15 15 15 16 15 16 16 17 17 17 17 18 18 18 18 19 19 18 18 18 18 18 18 18 18 17 17 18 18 18 18 19 19 19 19 20 21 22 22 23 24 25
16 16 16 16 17 17 17 17 17 18 18 19 19 19 20 20 20 20 20 20 20 19 19 19 19 19 19 19 19 20 20 20 20 20 21 21 22 22 23 23 24 25 26
17 18 18 18 18 18 18 18 19 19 20 20 21 21 21 21 21 21 21 21 21 20 20 21 21 20 21 21 21 21 21 21 22 22 22 23 23 24 24 25 26 27 28
19 20 20 20 20 20 20 21 21 21 22 22 22 22 23 23 23 23 23 23 23 22 23 23 23 22 22 22 22 23 23 22 23 23 23 24 25 25 26 26 27 28 29
22 22 22 23 23 23 23 24 24 25 25 25 25 25 24 24 24 24 25 25 25 24 24 24 23 23 23 24 24 24 24 24 24 24 25 25 26 27 27 28 29 29 30
23 24 24 25 25 25 25 26 27 27 27 26 26 26 26 26 25 25 25 26 26 26 26 25 24 24 25 26 26 25 25 25 25 26 26 27 27 28 29 29 29 30 31
25 25 25 26 26 27 28 28 29 29 28 28 27 27 27 27 26 26 26 26 26 27 26 26 25 25 25 26 26 26 27 27 27 28 28 29 29 30 30 31 31 32 32
26 27 27 28 28 29 29 29 29 29 29 29 28 29 28 28 27 26 26 27 27 27 26 26 26 26 26 26 27 27 28 29 29 30 30 30 31 31 32 32 33 33 34
29 29 29 30 30 31 31 31 31 31 30 30 30 30 29 29 28 27 27 27 27 27 27 27 27 27 28 28 28 29 30 30 31 31 32 32 32 33 34 34 34 34 35
31 31 31 32 32 32 32 32 32 31 31 31 31 31 30 30 29 29 29 29 29 29 29 28 28 29 29 30 30 30 31 31 32 32 32 33 33 34 35 35 35 35 35
32 32 32 32 32 32 32 32 33 33 33 32 31 32 31 30 29 29 30 30 31 31 31 30 30 30 31 31 31 32 32 32 33 33 33 34 34 34 35 35 35 35 34
34 33 33 33 33 33 33 33 33 33 33 32 32 32 31 31 30 30 31 31 32 32 32 32 32 32 32 32 33 33 33 33 34 34 34 35 35 35 35 35 35 35 35
36 35 34 34 34 34 34 34 35 35 34 33 32 32 32 32 32 32 32 32 33 33 33 33 33 33 33 34 34 34 34 34 34 35 35 36 35 35 35 35 35 35 35
36 35 35 35 35 35 36 37 36 36 35 34 33 33 33 34 33 33 33 33 34 34 34 34 34 34 34 34 34 34 35 35 35 35 36 35 35 34 34 34 35 35 35
36 36 36 36 36 37 37 38 37 36 35 35 35 34 34 34 34 34 34 34 35 35 35 35 35 35 34 35 35 35 36 35 35 35 35 35 34 34 34 35 35 35 36
37 37 37 37 38 38 38 39 38 37 36 37 36 35 34 35 35 35 34 35 36 36 36 36 35 35 36 36 36 35 35 35 34 34 35 35 34 34 34 35 35 36 36
37 37 37 38 37 37 38 38 37 37 37 35 35 34 34 35 35 35 35 36 36 36 36 36 35 35 36 35 35 34 34 34 34 34 34 34 34 34 35 35 35 35 35
37 37 37 37 37 38 38 37 37 36 34 34 35 34 34 35 36 36 35 35 36 36 35 35 35 35 35 34 34 33 34 34 33 33 33 33 34 34 35 35 35 35 36
37 37 37 37 37 36 36 35 34 34 34 34 34 34 35 35 36 35 35 35 35 34 34 35 35 34 34 34 33 33 34 33 33 33 33 33 33 34 34 35 35 35 35

GEFSGL_500_meanwind_240.txt.gz
Wind_Speed
8 8 7 7 7 7 8 8 9 9 10 10 10 10 10 10 10 9 9 9 10 10 10 11 11 11 11 11 12 12 12 13 13 13 14 14 14 14 14 14 14 14 15
8 7 8 8 7 8 9 9 10 10 10 11 11 11 11 10 10 10 10 10 10 11 11 12 12 13 12 13 14 14 14 14 14 14 14 14 14 14 14 14 14 15 15
8 8 8 8 8 9 9 10 10 10 10 11 11 11 11 11 11 11 11 11 11 12 12 13 14 14 14 15 15 15 14 14 14 14 14 14 14 15 15 15 15 16 16
9 9 9 9 9 9 10 10 11 11 11 12 12 12 12 12 11 11 12 13 13 14 14 14 14 15 15 15 16 15 15 14 14 14 14 14 15 15 15 16 16 17 18
9 10 10 10 10 11 11 11 11 12 12 12 12 12 12 12 13 13 14 15 15 15 16 16 15 16 16 16 16 15 15 15 15 15 16 15 15 15 16 16 17 18 19
10 10 11 12 12 12 12 12 13 13 13 13 13 13 14 14 14 15 16 16 17 17 17 17 17 17 17 17 17 16 16 16 16 16 16 16 16 17 17 18 18 19 20
10 11 12 12 12 12 12 12 13 13 14 14 14 14 15 15 16 16 17 17 17 17 17 17 18 18 18 18 17 17 17 17 17 17 17 17 18 18 19 20 20 21 21
12 13 13 13 13 13 13 13 14 14 14 14 15 16 16 17 18 18 19 19 18 18 18 18 19 19 18 18 18 18 19 19 19 19 18 18 19 20 21 21 21 22 23
14 14 14 14 14 15 15 15 15 16 16 16 17 17 18 18 19 20 20 20 19 19 19 20 20 20 20 20 20 20 20 20 20 20 20 21 21 22 22 22 23 23 24
16 16 16 15 15 16 17 17 18 18 19 20 20 20 20 20 21 22 22 21 21 21 21 21 21 21 21 21 21 21 21 22 21 21 21 21 22 23 23 24 24 25 26
18 18 18 17 17 18 18 18 20 20 20 21 21 21 22 22 22 23 23 23 22 22 23 23 23 23 23 22 23 23 23 23 23 23 23 23 23 24 25 25 26 27 28
20 20 20 20 20 20 19 20 20 21 21 22 22 22 23 23 24 24 24 24 24 25 25 25 25 24 24 23 24 24 24 24 24 24 24 25 25 26 27 27 28 29 30
22 22 22 22 22 22 21 21 22 22 23 23 24 24 24 24 25 25 25 26 26 26 26 26 26 25 25 25 25 24 25 25 25 25 25 26 27 28 28 29 30 30 31
23 23 23 23 23 23 22 22 23 23 24 25 26 26 25 25 25 26 26 26 26 26 26 25 25 25 25 25 25 25 25 25 26 26 27 27 28 29 29 30 30 31 31
25 25 24 24 24 24 24 24 24 25 25 25 26 26 26 27 27 28 27 27 27 27 26 26 26 25 25 25 26 26 26 27 28 28 29 29 29 30 30 31 31 32 32
26 26 26 26 26 25 25 25 25 26 26 26 27 28 29 29 29 29 28 28 28 27 27 26 27 26 26 26 27 28 28 29 29 29 30 30 31 32 32 32 32 32 32
29 28 28 27 27 27 27 27 27 27 28 28 29 30 31 31 30 29 29 29 29 29 28 28 28 28 28 29 29 30 30 30 31 31 31 32 32 32 32 32 33 33 33
30 30 30 29 28 29 29 29 29 29 30 31 31 31 32 32 31 31 31 31 30 30 30 30 30 30 30 30 31 31 32 32 32 32 31 31 32 32 32 32 32 32 33
31 32 32 31 31 31 31 32 32 32 32 33 33 33 33 33 32 32 32 32 32 32 32 31 31 32 32 33 32 32 33 33 33 33 33 33 32 32 33 33 33 34 33
33 34 34 33 33 33 34 34 34 34 34 34 34 34 34 34 33 33 33 33 33 32 32 32 32 32 33 33 33 33 33 33 33 33 33 33 33 33 33 33 33 33 33
34 35 35 35 35 36 36 36 35 35 34 34 35 35 35 35 34 33 32 32 33 32 32 32 32 32 33 33 33 33 33 33 33 33 33 33 33 33 33 32 32 32 32
35 36 36 36 36 37 37 37 37 36 36 36 36 36 36 35 34 33 32 32 32 32 32 32 33 34 34 33 33 33 33 33 33 34 34 33 33 33 33 32 31 31 32
37 36 36 36 36 37 37 37 36 36 37 37 37 37 36 34 34 33 33 32 33 33 33 33 34 34 34 33 33 33 33 34 34 34 33 32 32 32 32 31 31 32 32
37 37 36 36 37 37 37 37 37 37 37 37 37 36 36 35 34 34 33 32 32 33 33 34 34 35 34 33 32 33 33 34 34 32 31 31 31 31 31 31 32 32 32
37 37 37 36 36 37 37 37 36 36 37 37 37 36 35 34 33 33 33 33 32 33 33 34 34 34 34 34 33 34 33 33 32 32 31 31 30 31 31 32 32 32 32
38 38 37 37 36 36 36 36 36 36 36 36 36 35 34 33 32 33 33 32 32 32 33 33 34 34 34 33 34 33 33 32 32 32 32 31 30 31 32 32 32 32 32

GEFSGL_500_meanwind_246.txt.gz
Wind_Speed
7 7 8 7 7 7 7 7 8 9 9 10 10 10 10 10 11 11 11 12 12 12 12 12 13 14 14 14 14 15 15 15 15 16 16 16 16 16 15 15 15 15 16
7 7 7 7 7 7 7 8 9 10 10 11 11 11 11 11 12 12 13 13 13 13 13 14 14 15 15 16 16 16 16 16 16 16 17 17 16 16 15 15 15 16 16
7 7 7 8 8 9 9 9 10 10 11 11 11 11 12 12 13 13 14 14 15 15 15 15 16 16 16 16 17 17 17 17 17 17 17 17 16 16 16 17 17 17 18
6 6 7 8 9 10 10 10 10 11 12 12 12 12 13 13 13 14 14 15 16 16 17 17 18 18 18 17 17 17 17 18 18 17 17 17 17 17 17 18 18 19 20
6 7 8 9 10 10 11 11 12 13 13 14 14 14 14 14 15 15 16 16 17 17 18 18 19 19 19 19 18 18 18 18 18 18 18 18 18 18 18 19 19 20 20
8 8 9 9 10 11 12 12 13 14 15 15 15 15 15 15 16 16 17 17 18 19 19 19 19 20 19 19 19 18 19 19 19 19 19 19 19 19 20 21 21 21 21
10 10 10 11 11 12 13 14 15 15 16 16 16 16 16 17 17 17 18 18 19 19 19 20 20 20 20 20 20 19 19 19 20 20 20 20 21 21 22 22 22 23 23
11 11 12 13 14 14 15 16 16 17 17 17 17 17 17 18 19 19 19 19 19 20 20 20 21 21 21 21 21 21 21 21 21 21 22 22 22 22 23 23 23 24 24
13 14 14 16 16 17 18 19 19 19 18 19 18 18 19 19 20 20 20 20 20 21 21 21 21 22 22 22 23 23 22 22 23 23 24 24 24 24 24 25 25 25 26
15 16 16 17 18 19 20 20 20 20 20 20 21 20 20 20 21 21 21 21 21 21 22 22 22 23 23 23 24 23 23 23 24 24 25 25 25 26 26 26 27 27 28
18 19 19 19 20 21 22 22 23 23 22 21 22 22 21 22 22 23 22 21 22 22 23 23 24 24 24 25 25 25 24 25 25 25 26 26 27 27 27 27 28 28 28
20 21 21 22 22 23 23 23 24 25 24 24 23 23 22 23 23 24 23 23 23 24 24 24 24 25 25 26 26 26 26 26 26 26 27 27 27 28 28 28 28 28 28
21 22 22 24 24 24 25 25 26 26 25 24 24 23 23 24 25 25 25 26 26 26 26 26 26 26 26 27 27 27 27 27 27 27 28 28 28 28 29 29 29 29 29
23 24 25 25 26 26 26 26 27 28 27 26 25 25 25 25 26 27 27 27 28 28 28 28 27 27 28 28 28 29 28 28 28 28 29 29 29 29 30 30 30 30 30
25 25 26 26 27 27 28 28 29 29 29 28 28 27 27 27 28 29 29 29 30 29 29 29 29 29 29 29 29 29 29 29 29 29 29 30 30 31 31 32 31 31 32
28 27 27 28 28 28 29 29 29 30 30 30 30 30 29 29 29 30 31 31 31 31 31 30 30 30 30 30 30 30 30 30 30 30 30 31 31 31 32 33 33 33 33
30 30 29 29 29 30 30 31 31 31 32 32 31 31 31 31 31 32 33 33 32 32 31 31 31 31 31 31 31 31 31 31 31 31 32 32 32 33 33 33 33 33 33
32 32 32 31 31 32 32 32 32 31 31 32 32 32 33 33 33 33 33 34 33 32 32 32 32 32 32 32 32 32 32 31 31 32 33 34 34 34 34 34 34 34 34
33 33 34 33 33 33 33 33 33 33 33 34 34 33 33 34 33 34 34 34 34 33 33 33 33 33 32 33 33 33 33 33 33 34 34 35 35 35 35 35 35 35 35
34 34 34 35 35 36 36 36 35 35 35 35 35 35 35 35 34 35 35 35 34 34 34 33 33 33 33 34 33 33 34 34 34 35 35 35 35 35 35 35 35 35 34
35 35 36 37 37 37 37 37 37 36 36 36 36 36 36 36 36 36 36 34 34 34 34 34 34 34 34 35 34 34 34 34 35 36 35 35 35 35 35 35 35 34 34
36 36 37 38 38 38 38 39 38 37 37 36 36 37 36 35 35 35 35 34 35 35 35 34 34 35 35 35 34 35 35 35 35 36 36 35 36 36 35 35 35 34 34
37 37 37 37 38 38 39 39 39 39 38 37 37 37 36 36 35 36 35 35 36 36 36 35 34 35 35 35 35 35 35 35 35 36 35 35 36 36 35 35 35 35 34
38 38 39 39 38 38 38 38 39 39 38 38 38 37 37 37 37 36 36 37 37 37 36 36 36 35 34 35 36 35 36 36 36 35 36 35 35 36 35 35 34 34 34
39 40 40 39 38 38 38 38 38 38 38 38 38 37 37 38 37 36 37 38 38 37 36 36 36 35 35 35 36 36 36 35 35 35 35 35 36 36 35 35 35 34 34
40 40 39 38 38 37 37 38 37 36 36 36 37 37 37 37 37 37 38 37 37 36 36 36 35 35 34 34 35 35 34 34 34 35 35 35 35 35 35 35 35 35 34

GEFSGL_500_meanwind_252.txt.gz
Wind_Speed
3 2 3 4 4 4 5 5 6 7 7 8 9 9 9 9 10 11 11 12 13 14 14 15 15 14 14 14 14 15 15 16 16 17 17 17 17 17 16 16 16 16 16
3 3 4 5 5 5 6 6 7 8 8 9 10 10 10 10 11 12 13 13 14 15 15 16 15 15 15 16 16 16 16 16 16 17 17 17 17 17 17 17 17 17 17
4 5 5 5 6 6 7 7 8 9 9 9 10 11 11 12 12 13 13 14 15 16 16 15 15 16 16 16 17 17 17 17 17 17 17 17 17 17 16 17 17 18 19
5 5 6 7 7 7 8 8 9 9 10 10 11 12 12 13 13 13 14 15 16 16 16 16 17 17 17 17 17 17 18 17 17 18 17 17 17 17 17 18 18 19 19
6 7 7 8 8 8 8 8 9 10 11 12 12 13 13 14 14 15 15 16 17 17 18 18 18 18 17 17 17 18 18 18 18 18 18 17 17 18 18 19 19 19 19
8 8 9 9 8 8 9 9 10 11 12 13 14 15 15 15 16 16 17 17 18 18 19 19 19 18 18 18 18 18 18 19 19 18 18 18 18 18 19 19 20 20 20
9 10 10 10 9 10 11 12 12 13 14 15 15 16 16 17 17 18 18 19 19 20 20 20 19 18 19 19 18 19 19 19 19 19 19 19 19 19 19 20 20 20 21
10 11 11 11 12 12 13 14 14 14 15 16 16 17 18 19 19 19 19 20 20 20 20 20 20 20 20 19 20 20 21 21 20 20 20 20 20 20 20 21 21 22 23
12 12 12 12 13 14 15 16 16 17 17 18 18 19 20 20 20 21 21 21 21 21 21 21 21 21 21 21 21 22 22 22 21 21 22 22 22 22 22 23 23 24 24
15 15 14 14 15 16 17 18 18 19 20 20 20 21 21 22 23 22 22 23 23 23 23 23 23 23 22 23 23 23 23 23 23 23 23 23 23 24 24 25 25 25 26
18 18 18 18 18 18 19 19 20 21 21 22 22 22 23 24 24 24 24 24 24 25 25 25 26 25 25 25 24 25 25 24 24 24 24 24 24 24 25 25 25 26 27
21 21 21 20 20 20 21 22 22 23 23 24 24 24 25 25 25 25 25 26 25 26 26 26 27 26 26 26 26 26 26 26 26 25 25 25 25 25 25 25 26 27 28
24 23 23 23 23 23 23 23 24 25 25 26 26 26 26 26 26 27 27 27 26 27 27 27 27 27 27 27 27 27 27 26 26 26 26 26 26 26 26 26 27 27 28
27 27 27 27 26 25 25 25 26 26 27 27 27 27 27 27 28 28 28 28 28 28 28 27 27 27 27 28 28 28 27 26 26 27 27 27 27 27 27 28 28 28 29
29 28 28 28 27 27 27 28 28 28 28 29 29 29 29 29 29 29 29 29 29 29 29 28 27 28 28 29 29 28 27 27 27 28 28 28 28 28 29 29 29 29 29
29 29 29 29 28 28 29 29 29 29 30 31 31 31 31 31 31 31 30 30 30 29 29 29 28 28 29 29 29 29 28 27 28 28 28 29 29 30 30 30 30 30 30
30 30 30 30 30 30 30 30 31 31 32 32 32 32 32 32 33 33 32 32 31 31 31 30 30 30 30 29 29 29 29 29 29 29 29 30 31 31 31 31 32 32 32
32 32 32 32 32 32 32 32 33 33 33 34 34 34 34 34 34 34 34 33 32 32 32 31 31 32 31 31 31 30 31 30 30 30 31 31 32 32 33 33 33 33 33
33 33 33 33 34 34 34 34 35 35 36 36 37 36 36 35 35 35 35 35 33 33 32 32 32 33 32 32 32 31 32 32 31 31 31 32 32 32 33 33 33 33 34
34 34 34 35 36 36 37 37 37 37 38 38 38 38 38 37 37 37 37 35 35 34 34 34 34 34 33 33 33 33 33 32 32 32 32 33 33 33 32 33 33 34 34
35 35 35 35 36 37 38 38 38 39 39 39 39 39 39 39 39 38 37 37 36 36 36 36 35 35 34 35 34 34 33 32 32 33 33 33 33 33 33 33 34 34 34
36 36 36 37 38 38 39 39 39 39 39 39 39 39 40 40 40 40 39 38 37 37 37 37 37 36 35 35 35 35 34 33 33 34 34 34 34 34 33 34 35 35 35
37 37 38 38 38 39 39 39 40 40 40 40 40 40 40 40 40 39 39 38 38 38 38 38 38 38 37 36 36 35 35 34 33 33 34 33 33 34 34 35 36 36 36
38 38 38 38 38 38 38 38 39 40 40 40 39 40 40 39 39 39 39 39 38 38 38 39 38 38 38 37 36 36 35 34 34 34 34 34 35 35 35 36 35 36 35
38 39 39 38 38 37 37 38 39 40 41 40 40 40 40 40 40 39 39 39 39 38 38 38 38 38 37 36 36 36 35 35 35 35 35 36 36 36 35 35 34 34 33
39 40 39 38 37 37 37 37 38 39 38 38 39 39 39 40 39 39 39 39 39 39 38 38 37 36 36 36 36 35 35 34 34 34 34 35 35 35 34 33 33 33 33

GEFSGL_500_meanwind_258.txt.gz
Wind_Speed
5 5 6 6 7 7 8 8 9 9 10 10 10 10 11 12 12 13 13 14 15 15 16 17 17 18 19 18 18 18 18 17 18 18 18 18 18 17 17 16 16 16 15
5 5 6 6 7 8 9 9 10 11 11 11 10 11 12 12 13 13 14 15 15 16 17 18 18 19 19 19 18 18 18 18 18 18 18 18 18 17 17 17 17 17 16
6 7 7 7 8 9 9 10 11 11 11 11 11 12 13 13 14 14 15 15 16 16 17 18 19 20 20 19 19 19 19 19 19 19 19 18 18 18 17 17 17 17 17
7 8 8 8 9 9 10 11 11 12 12 12 12 12 13 14 15 15 16 16 16 17 18 19 19 20 20 20 20 20 19 19 19 19 19 18 18 18 18 18 18 18 17
9 9 9 10 9 10 10 11 12 12 13 13 13 13 14 15 16 17 17 18 18 19 20 20 20 20 20 20 20 20 20 20 20 20 20 20 19 19 19 19 19 19 19
11 11 11 11 10 11 11 12 13 14 14 14 15 15 15 16 17 18 18 19 19 20 21 21 21 21 21 21 21 21 20 20 21 21 21 21 21 21 21 20 20 20 20
12 12 11 11 12 12 13 14 15 15 16 16 16 16 17 17 18 18 19 20 21 22 22 22 22 21 21 22 22 22 22 21 22 22 22 23 23 22 22 21 21 21 22
13 12 12 12 13 14 14 15 17 17 17 17 17 17 17 18 19 19 20 21 22 22 23 23 23 23 23 23 23 23 23 23 23 23 24 24 24 24 23 22 22 23 23
14 14 14 14 15 16 17 17 18 19 19 19 19 18 19 19 20 21 22 22 23 23 24 24 24 24 24 24 24 25 24 24 25 25 25 25 25 24 24 23 23 23 23
16 16 16 17 18 19 19 20 21 21 21 20 21 21 21 22 22 23 24 24 25 25 25 25 26 26 25 25 25 26 26 26 26 26 26 25 25 24 24 24 24 24 24
18 18 19 20 20 21 22 22 22 23 23 22 22 23 24 24 24 24 25 25 26 27 26 27 27 27 27 27 26 27 27 28 27 26 26 25 25 25 25 26 26 26 26
20 21 22 23 23 23 23 24 24 24 24 24 24 24 24 25 26 26 27 27 27 28 28 28 28 28 28 28 28 28 28 28 27 27 26 25 25 25 26 27 28 28 28
23 23 24 25 25 25 25 26 27 27 26 26 27 26 26 26 27 28 28 29 29 29 29 29 29 29 29 29 29 29 29 28 28 27 27 26 26 27 27 27 27 28 29
26 26 26 26 27 27 28 28 29 29 29 28 29 29 29 29 29 30 31 31 31 30 31 31 31 30 30 30 30 30 30 30 29 29 28 28 28 28 28 28 29 29 29
28 29 29 28 28 29 30 30 30 31 30 30 31 31 31 31 31 32 32 32 32 32 32 32 32 31 31 31 31 31 31 31 31 31 30 30 30 30 29 29 30 30 30
31 31 31 31 31 31 32 33 33 33 32 31 31 32 32 33 34 34 34 34 33 33 33 33 33 33 32 32 31 31 32 33 33 33 32 32 32 32 32 32 32 32 32
33 33 34 33 33 33 34 34 34 34 34 34 34 35 35 35 35 35 35 35 34 35 35 35 35 35 34 34 33 33 34 34 34 34 34 34 33 33 34 34 34 34 34
33 34 34 35 35 35 36 36 36 36 35 36 36 36 36 36 36 37 37 37 37 37 37 37 36 36 36 35 35 35 35 36 35 35 35 35 35 35 35 35 35 35 35
35 36 36 37 37 37 38 38 37 37 37 37 37 37 37 37 37 38 38 38 38 37 37 38 38 37 37 37 37 36 36 36 36 36 36 36 36 37 36 36 36 36 36
37 38 38 39 39 40 39 39 39 39 38 38 38 38 38 38 38 39 39 39 38 38 38 38 38 38 38 37 37 37 37 37 37 37 37 37 37 37 37 37 37 37 36
40 40 40 40 40 40 39 39 40 40 40 40 39 39 39 40 39 39 39 40 40 40 40 40 39 39 38 38 37 37 37 37 37 36 36 36 36 37 37 37 37 37 37
39 40 40 41 41 40 40 40 40 40 40 41 40 39 39 40 41 41 40 41 41 42 42 41 41 41 39 38 38 39 38 37 37 36 36 36 37 37 37 38 38 38 38
39 40 41 41 42 42 41 41 40 40 41 41 41 41 41 41 41 42 41 41 42 43 43 42 41 41 39 39 39 38 37 36 36 36 36 36 37 37 38 38 38 38 38
39 39 40 40 40 41 41 40 40 40 40 41 41 41 42 42 43 43 43 44 44 43 42 41 40 39 38 37 37 36 36 36 36 36 36 37 37 37 37 37 37 37 37
39 39 40 39 40 39 39 39 38 39 40 41 42 42 42 43 43 44 44 44 43 41 40 39 39 38 36 36 36 36 36 36 37 37 37 38 38 37 37 36 36 36 36
39 39 39 39 39 39 39 39 38 40 41 41 41 42 42 43 43 43 43 42 41 40 39 39 37 37 36 35 35 36 36 37 37 37 38 39 39 38 37 35 35 35 35

GEFSGL_500_meanwind_264.txt.gz
Wind_Speed
3 3 2 3 3 5 5 5 5 6 6 7 7 8 9 9 9 9 9 10 10 11 12 13 14 14 14 14 15 15 15 15 15 15 14 14 14 14 14 14 14 14 13
3 3 3 3 3 4 5 5 6 6 7 7 7 8 9 9 10 10 10 11 11 12 13 14 15 15 15 16 16 16 16 16 16 16 15 15 15 14 15 15 15 15 14
3 3 3 3 4 4 5 6 6 7 7 7 8 9 9 10 11 11 11 12 12 13 13 14 15 16 16 17 17 17 17 17 17 16 16 16 16 15 15 15 15 15 15
3 4 4 4 5 5 6 6 7 7 8 9 9 10 10 11 12 12 13 13 13 14 15 16 16 17 17 18 18 18 18 18 18 18 18 18 17 17 16 16 16 16 16
5 5 5 6 6 6 6 7 8 8 9 10 10 11 12 13 13 13 14 14 14 15 16 17 17 18 18 18 19 19 19 19 19 19 19 19 19 18 18 18 17 17 17
6 6 6 6 6 7 7 8 9 9 10 11 12 12 13 14 14 14 15 15 15 16 17 17 18 18 19 19 19 20 20 21 21 20 20 20 20 20 20 19 19 19 18
8 8 8 8 9 9 9 9 10 11 11 12 13 14 15 15 16 16 16 16 17 18 18 19 19 19 20 20 20 21 22 22 22 22 21 21 21 21 21 20 20 20 20
10 10 10 11 11 11 10 11 11 13 13 15 15 15 16 16 17 17 18 18 19 20 20 21 21 20 21 22 22 22 23 23 23 22 22 22 22 22 22 21 21 21 21
13 12 12 12 12 12 12 13 13 14 15 16 16 17 17 18 18 19 20 19 20 21 21 22 22 22 22 23 24 24 24 24 24 23 23 24 24 23 23 23 23 23 22
15 15 15 14 14 13 14 14 15 16 16 17 18 18 19 20 20 21 21 21 22 23 23 24 24 24 24 24 25 25 25 25 25 25 25 24 24 24 24 24 24 24 24
17 17 18 18 17 17 17 17 18 18 18 19 20 20 21 22 23 23 23 24 24 25 25 26 26 26 26 25 25 25 25 26 25 25 25 25 25 25 25 25 25 25 25
19 19 19 20 20 20 20 20 20 20 21 22 22 23 23 24 24 24 25 26 27 27 27 27 27 27 28 27 27 26 26 27 26 26 26 26 26 26 26 25 26 26 26
21 21 22 22 22 22 22 22 22 23 23 24 25 25 26 26 26 27 27 28 28 28 27 28 28 28 29 29 28 28 27 27 27 27 27 27 27 27 27 27 27 27 27
23 23 24 24 24 24 24 24 24 25 26 27 28 28 28 27 28 28 29 29 29 29 29 29 29 29 30 30 29 29 29 29 29 29 29 29 29 29 29 28 28 28 28
26 26 26 26 27 26 26 27 28 28 29 30 30 30 30 30 30 30 31 30 31 31 31 31 31 30 30 31 31 31 31 31 32 32 31 31 30 30 30 30 30 29 29
29 29 29 29 29 29 29 30 30 31 31 32 32 32 31 31 32 32 33 33 32 32 32 32 32 31 31 32 32 32 33 34 34 34 33 33 33 32 32 31 31 31 31
30 30 31 31 31 32 32 32 32 32 33 34 33 33 33 33 34 34 34 34 34 34 34 33 33 33 33 34 34 34 35 35 35 35 34 34 34 33 33 33 32 32 32
32 32 33 33 33 34 34 34 34 35 35 35 34 34 34 35 35 35 36 36 36 35 35 35 35 35 35 35 35 36 36 36 35 35 35 34 34 34 34 34 33 33 33
34 34 34 34 35 35 36 36 36 36 36 36 36 36 37 36 36 36 37 37 37 37 36 36 36 37 37 37 37 36 36 36 35 34 34 34 34 34 33 34 34 33 33
36 36 35 36 36 37 37 37 38 38 37 37 38 38 38 38 38 38 37 37 37 37 37 37 37 38 39 38 36 36 36 35 35 34 34 34 33 34 34 34 34 34 34
37 37 37 37 38 37 38 38 39 39 40 40 39 39 39 38 38 39 38 38 38 37 37 38 38 38 38 38 37 36 35 35 35 35 35 34 34 34 34 34 34 34 35
37 38 38 39 38 38 39 39 40 40 41 41 41 41 40 40 40 40 39 39 38 38 38 38 38 39 39 38 37 36 36 36 36 36 35 35 34 34 34 34 34 34 34
37 38 39 39 40 40 41 41 41 41 41 42 42 42 42 41 40 40 39 39 39 39 39 39 39 39 38 39 38 37 36 36 36 36 36 35 35 35 35 35 34 35 35
37 38 39 39 39 40 40 40 41 42 42 43 43 43 42 41 41 41 41 40 40 40 40 40 40 40 39 38 38 38 37 36 36 35 36 35 35 35 35 35 35 36 35
37 38 38 38 39 40 40 40 41 42 42 42 42 42 41 41 42 41 41 41 41 41 41 41 40 39 38 38 38 37 36 36 36 36 36 35 35 35 35 34 34 35 34
35 37 38 39 39 40 40 40 41 42 42 42 42 42 42 42 42 42 42 42 41 40 39 38 38 37 37 37 37 36 35 35 35 35 35 35 35 35 35 35 35 34 34

GEFSGL_500_meanwind_270.txt.gz
Wind_Speed
3 2 2 1 1 1 2 2 2 3 4 4 5 6 7 8 8 9 9 10 10 11 12 13 13 14 14 15 15 16 16 16 17 17 18 18 17 17 17 17 17 17 17
4 4 4 3 3 3 3 4 4 4 5 5 6 7 8 9 10 10 11 12 12 13 13 13 14 15 16 16 17 17 17 17 18 18 18 18 18 18 18 18 18 18 18
6 6 6 6 5 5 5 5 5 6 6 7 7 8 9 10 11 12 12 13 13 13 14 15 15 16 16 17 18 18 19 19 19 19 19 19 19 19 19 19 19 19 19
7 7 7 7 7 8 7 6 7 8 8 9 9 9 10 11 12 13 13 14 14 14 15 16 16 17 18 18 18 19 19 20 20 20 21 21 20 21 20 20 20 21 20
9 8 8 8 9 9 8 8 9 10 10 10 10 11 11 12 12 13 13 14 15 15 16 17 18 19 19 19 20 20 20 21 21 22 22 22 22 22 22 22 22 22 21
11 11 10 11 11 10 10 10 11 12 12 12 12 13 13 13 14 14 15 16 16 17 18 18 19 20 20 21 21 21 22 22 22 23 23 23 23 23 23 23 22 22 22
13 13 13 13 13 12 12 12 13 13 14 14 14 14 15 15 15 16 17 18 18 19 19 20 20 21 21 22 22 23 24 24 24 23 23 23 23 23 23 23 23 23 23
16 15 14 14 15 14 14 14 14 15 15 15 16 16 16 17 17 18 18 19 20 21 21 22 22 23 23 24 24 25 25 25 25 25 25 24 24 24 24 24 24 24 24
18 17 17 16 16 16 16 16 16 16 17 18 19 18 20 20 20 20 20 20 21 22 23 24 24 25 25 25 25 25 26 26 27 26 26 25 25 25 25 26 25 25 24
20 19 19 18 18 18 17 18 18 18 19 20 20 21 22 21 22 23 23 23 23 24 25 25 25 25 26 26 26 26 27 27 27 27 27 26 26 26 26 26 26 25 25
22 22 21 20 21 21 20 20 21 21 21 22 22 23 23 24 24 25 26 27 27 27 26 27 27 27 28 28 28 28 28 28 28 28 28 27 27 28 27 27 26 26 26
23 23 23 23 23 23 23 23 24 24 24 24 25 25 26 26 26 27 28 29 30 30 29 30 30 30 30 30 29 29 29 29 29 29 28 28 28 28 28 28 28 28 28
25 25 25 25 25 26 26 26 27 27 27 28 28 28 28 29 29 30 30 31 32 32 32 32 32 32 32 32 31 31 30 31 31 30 30 29 29 29 29 30 29 29 28
26 25 25 26 27 28 28 28 28 28 28 29 30 30 31 31 32 32 33 33 34 34 33 33 33 33 33 33 32 33 32 32 32 32 31 30 30 30 30 30 30 30 29
27 27 27 28 28 29 29 30 30 31 32 32 33 33 33 33 33 35 36 35 35 35 35 34 34 35 34 34 33 33 34 34 34 34 33 33 32 32 32 32 32 31 31
29 29 29 29 30 30 31 31 33 33 34 34 34 34 34 35 35 36 36 36 36 36 36 35 35 35 35 35 35 35 36 36 36 35 35 35 34 33 33 33 33 32 32
29 30 31 31 32 32 33 34 34 34 35 35 35 35 35 35 36 38 38 38 38 38 37 37 36 36 36 36 36 36 36 36 36 36 36 36 35 35 34 34 34 33 33
31 31 31 31 32 33 34 35 36 35 35 36 36 37 37 37 38 39 40 40 39 39 38 38 37 36 36 36 36 37 37 37 37 37 36 37 36 35 34 34 34 34 34
32 32 32 32 33 33 34 35 36 36 37 38 38 39 39 39 40 41 41 41 41 40 40 39 37 36 36 36 37 37 38 38 38 38 36 36 36 36 35 34 35 35 35
33 33 33 34 35 35 36 37 37 38 39 39 40 40 40 40 41 42 43 43 43 42 41 40 39 39 38 37 38 38 38 38 38 38 38 37 36 36 36 36 36 36 35
32 32 33 34 35 35 36 37 38 39 40 40 41 41 41 41 42 43 43 43 43 42 41 40 40 39 39 39 39 39 39 39 38 38 38 37 37 36 36 36 36 36 36
32 33 33 33 35 36 37 38 39 39 39 40 40 42 42 43 44 44 43 43 42 42 42 42 41 41 41 40 40 40 40 40 39 38 38 37 37 37 36 36 36 36 36
32 33 35 36 36 37 38 39 40 39 39 40 40 41 42 43 44 44 44 43 43 43 43 43 43 43 43 42 42 42 41 40 39 38 38 38 38 38 37 37 37 37 36
33 34 35 37 38 39 39 39 38 39 39 39 40 41 42 43 43 44 44 43 44 44 44 44 44 43 44 43 43 42 41 40 39 39 39 39 38 38 38 38 37 36 36
35 36 37 38 39 39 39 38 39 39 39 40 41 41 42 42 43 44 44 43 43 44 44 45 44 44 44 44 43 42 40 40 39 39 38 38 38 38 38 37 36 36 36
35 37 37 38 38 38 38 38 38 38 38 38 39 39 40 40 41 42 42 41 41 42 42 42 42 42 42 42 40 40 40 39 38 38 38 38 38 38 38 37 36 36 36

GEFSGL_500_meanwind_276.txt.gz
Wind_Speed
5 5 5 5 5 4 4 4 4 4 4 4 4 5 6 6 7 8 8 9 9 10 11 12 12 13 14 15 16 16 16 16 17 17 18 18 18 17 17 17 17 18 18
6 6 6 6 5 5 5 5 5 5 6 6 6 7 8 8 8 9 9 10 11 11 12 13 14 14 15 16 17 17 17 17 18 18 19 19 19 19 18 18 18 19 19
8 8 8 8 7 7 7 6 6 7 8 8 9 9 9 10 10 10 10 11 12 13 14 15 15 16 16 17 18 18 18 18 19 19 20 20 20 20 20 20 20 20 20
10 9 9 9 9 9 9 9 9 9 10 10 11 11 11 11 12 12 12 13 13 14 15 16 17 17 17 18 19 20 20 19 20 20 21 21 21 21 21 21 21 21 21
12 12 12 12 12 12 12 11 11 11 11 12 12 12 12 13 14 15 14 15 16 16 17 17 18 19 19 19 20 21 21 21 21 21 21 22 22 22 22 22 22 22 22
14 14 15 15 15 15 14 14 13 13 13 13 13 14 14 15 16 17 17 17 18 18 19 19 20 20 21 21 22 22 22 22 21 22 22 22 23 23 23 23 23 23 23
15 15 16 17 17 17 17 17 16 16 15 14 15 15 16 17 18 18 19 19 20 21 22 22 22 23 23 24 23 23 23 23 23 23 23 23 24 24 24 24 25 24 24
17 18 19 19 19 19 19 18 18 16 16 16 16 16 17 18 19 20 21 20 21 22 23 23 24 25 26 26 25 25 25 25 24 24 25 25 25 26 26 26 26 26 25
20 20 20 21 20 21 21 20 19 18 18 19 19 19 19 20 20 21 22 23 23 25 26 26 26 27 28 28 28 27 26 26 26 26 26 26 27 28 28 28 27 27 27
22 22 21 21 21 22 22 22 21 21 21 21 21 22 22 22 23 24 25 26 26 27 28 29 29 29 29 30 30 29 28 27 27 27 27 28 28 29 29 29 29 28 28
23 23 22 22 22 22 23 23 23 24 24 24 24 24 24 25 25 26 28 29 29 30 31 31 31 31 31 31 31 30 29 28 28 28 29 29 30 31 30 30 30 30 29
24 24 23 23 23 23 24 24 25 25 25 26 27 27 27 27 28 29 30 31 32 32 32 33 33 34 33 34 32 31 30 30 30 30 30 31 31 31 31 31 31 31 31
24 24 25 25 25 25 26 26 27 27 28 28 29 29 30 30 31 31 32 33 33 34 34 35 35 35 35 34 32 32 31 31 31 31 31 31 32 32 32 32 32 32 32
26 26 26 27 27 28 28 28 29 29 30 31 32 32 32 32 32 32 33 34 35 35 35 34 35 35 34 33 32 32 32 32 32 31 31 31 32 33 33 33 34 34 33
27 28 28 29 29 29 29 30 31 31 32 33 32 32 32 33 33 33 34 35 35 35 35 35 34 34 34 34 34 33 32 33 32 32 32 33 33 33 33 33 34 34 33
29 29 29 30 31 30 30 31 31 33 33 33 33 33 34 34 34 34 35 36 37 38 37 37 36 36 36 36 36 34 34 34 35 35 35 35 35 35 34 34 34 33 33
31 30 30 30 31 31 32 33 33 34 35 34 33 34 34 35 35 35 36 37 38 38 38 38 37 37 37 37 37 36 36 36 36 36 37 37 36 35 35 34 33 34 34
32 32 32 32 33 34 34 34 35 35 35 36 35 36 36 36 36 36 38 39 39 39 38 38 38 38 38 38 37 37 37 37 37 37 37 38 37 36 35 34 34 34 34
33 33 33 34 34 34 34 34 36 36 36 37 37 36 36 37 37 37 38 38 39 39 39 39 38 38 38 38 38 37 38 37 37 37 38 38 38 37 36 36 36 35 35
34 35 35 35 35 36 35 36 35 36 36 37 37 37 37 38 38 37 37 38 39 39 39 38 38 38 38 38 38 38 37 37 38 38 38 38 38 38 37 37 37 37 36
35 35 35 35 36 36 36 36 36 35 35 34 35 35 37 38 38 38 38 39 39 40 39 38 37 36 37 36 37 37 37 37 38 38 39 40 40 40 40 39 38 37 37
33 33 33 33 34 34 34 35 36 35 35 35 35 35 36 37 38 37 38 38 39 39 38 38 37 37 37 37 37 37 37 38 39 40 40 40 40 40 39 39 38 38 37
33 33 33 34 34 34 34 34 34 34 35 34 35 36 36 37 37 37 37 36 37 38 38 38 38 38 38 38 38 38 38 39 39 40 40 40 40 40 38 37 37 37 37
33 33 34 34 35 35 35 35 35 35 36 36 37 37 37 36 36 36 36 37 37 37 37 38 38 39 39 39 39 39 39 39 39 39 39 38 38 38 38 37 37 37 37
34 34 34 35 35 36 36 36 36 37 37 38 38 38 37 36 36 37 37 38 37 38 38 39 39 39 40 40 39 39 39 39 39 39 38 38 38 37 37 37 36 36 36
33 34 34 35 35 36 36 36 37 37 38 38 38 38 38 38 38 38 39 39 39 39 40 40 40 41 41 40 40 40 40 40 40 39 38 38 37 36 36 36 36 35 35

GEFSGL_500_meanwind_282.txt.gz
Wind_Speed
8 8 8 8 8 8 8 8 8 8 8 8 8 8 9 10 10 10 10 11 12 13 13 14 14 14 15 16 16 17 18 18 18 18 18 18 18 18 18 18 19 18 18
8 8 8 8 9 9 9 9 10 9 9 10 10 10 10 11 11 11 12 12 13 14 14 15 15 16 16 17 17 18 19 19 19 19 20 20 20 20 20 20 20 19 19
9 9 9 9 9 10 10 11 11 11 11 11 11 11 12 12 12 13 13 14 15 15 15 16 16 17 17 18 19 20 20 21 21 21 21 22 22 22 21 21 21 21 21
11 11 11 10 11 11 11 11 12 12 12 13 13 13 13 14 14 14 15 16 16 16 17 17 18 18 19 20 21 21 22 23 23 23 23 24 23 23 23 22 22 22 22
12 12 12 13 13 12 13 13 13 13 14 14 15 15 15 15 15 16 16 17 17 18 18 19 19 20 21 22 23 24 24 24 25 25 25 24 24 24 24 24 23 23 23
13 13 14 14 14 13 14 14 15 15 16 16 17 17 17 17 17 17 17 18 19 19 20 20 21 22 23 23 24 25 26 26 26 27 26 26 26 26 25 25 25 24 25
15 15 15 15 15 16 16 16 16 17 17 17 18 18 18 18 19 20 20 20 21 21 22 22 23 24 25 25 26 27 27 28 28 28 27 27 28 28 28 27 26 26 26
18 18 18 17 18 18 17 17 17 18 18 19 19 20 20 21 21 22 22 23 23 24 24 25 26 26 27 27 28 29 29 29 30 30 29 29 29 30 29 29 28 28 28
19 19 19 19 19 19 19 19 19 19 20 20 21 22 22 23 23 24 25 25 25 26 26 27 28 28 29 29 30 30 31 31 31 32 31 31 31 31 30 30 30 29 29
21 21 21 21 21 20 20 20 21 21 22 23 23 24 25 25 25 26 26 27 27 28 28 29 30 30 30 31 32 32 32 32 32 32 32 32 31 31 31 31 30 30 30
23 24 24 23 23 23 22 23 23 24 24 25 26 26 27 27 28 28 29 29 29 30 31 31 31 32 32 32 33 33 33 33 33 33 33 33 32 31 31 31 31 31 31
26 25 25 24 24 25 26 25 26 26 27 27 28 28 29 30 30 30 30 31 32 32 33 33 34 34 34 34 34 34 34 34 34 34 34 33 33 32 31 30 31 31 31
26 27 26 26 26 27 28 28 28 29 29 29 30 30 31 31 31 32 32 33 34 34 35 35 35 36 35 35 34 34 34 34 34 34 34 33 32 31 31 31 32 32 32
28 28 28 28 28 29 29 30 30 30 31 31 31 31 32 32 33 34 34 35 36 36 36 36 37 36 35 35 35 34 34 35 34 34 33 32 32 32 32 32 32 33 33
30 31 31 30 30 31 31 31 31 32 33 33 33 33 34 34 35 35 36 36 35 36 37 38 38 36 36 36 36 35 35 35 34 34 34 33 33 33 33 34 34 34 34
32 32 32 32 32 32 33 33 32 33 34 34 35 35 35 36 36 36 36 36 36 37 38 39 39 37 36 36 36 35 34 34 34 34 34 34 34 34 34 34 34 35 34
33 33 33 34 34 34 34 34 34 35 35 36 37 37 37 37 37 37 37 37 38 39 39 39 38 38 37 37 36 36 35 33 33 34 35 34 35 36 36 36 35 35 35
33 33 34 35 35 35 36 36 37 37 37 37 38 38 38 38 38 38 38 38 39 39 38 37 37 37 37 37 37 37 35 34 34 35 36 36 36 37 37 37 37 37 36
34 34 35 35 36 37 37 38 39 39 39 38 38 38 38 38 39 39 39 39 39 39 37 37 37 37 37 37 37 37 36 36 35 36 37 37 37 38 38 38 38 37 36
34 35 36 36 37 38 38 39 39 40 40 39 39 40 39 39 38 38 38 38 38 38 37 37 36 36 36 37 37 37 37 37 36 36 36 36 37 38 39 39 38 38 36
34 35 36 37 37 38 39 39 39 39 39 39 38 39 38 38 37 37 37 37 37 38 38 37 37 36 36 36 37 37 36 36 37 37 37 37 37 38 39 38 38 38 37
35 36 37 37 37 38 39 39 38 37 37 38 38 38 37 38 38 38 37 37 36 36 36 37 37 36 37 38 37 37 37 37 36 36 36 37 37 38 38 37 37 38 38
34 36 36 37 37 37 38 38 38 38 38 38 38 38 39 39 39 38 37 36 36 37 37 38 37 37 38 38 37 37 36 35 36 37 37 37 38 38 37 37 38 38 37
34 35 36 36 37 37 38 38 39 39 39 39 39 39 39 39 39 38 38 38 38 38 38 38 38 38 38 38 38 37 37 37 38 38 38 38 38 38 38 38 39 38 37
34 35 36 37 37 37 38 38 38 38 38 38 38 37 37 38 38 37 37 38 39 39 38 39 39 39 38 38 38 38 38 39 40 39 39 39 39 39 39 39 38 37 36
34 34 35 36 36 37 37 37 37 36 35 36 37 37 37 37 38 38 38 38 38 38 38 38 38 38 39 39 39 40 41 41 41 40 40 41 40 40 39 39 38 37 37

GEFSGL_500_meanwind_288.txt.gz
Wind_Speed
6 5 5 5 5 5 5 5 6 6 6 6 7 7 7 7 8 8 8 9 9 9 10 11 11 12 13 12 13 14 14 14 15 16 16 17 17 17 17 16 17 17 17
7 6 6 6 6 6 7 7 7 7 7 7 7 8 8 9 9 9 10 10 11 12 12 13 13 13 13 14 14 15 16 16 17 18 18 19 19 19 19 19 18 18 18
7 7 7 7 8 8 8 9 9 9 9 9 9 9 10 10 10 10 11 12 13 13 14 15 14 15 15 15 16 17 17 18 19 19 20 21 21 22 22 21 20 19 19
8 8 8 8 9 9 10 10 10 10 10 10 10 10 11 11 11 12 13 14 14 15 15 16 16 16 16 17 18 19 19 20 21 22 22 22 23 23 23 23 23 22 21
10 10 10 10 10 11 11 12 12 12 12 12 12 12 12 13 13 14 15 15 15 16 16 17 18 18 19 19 19 20 21 22 23 24 24 24 25 25 25 25 24 24 24
13 13 13 12 12 12 12 13 13 14 14 14 14 14 14 14 15 16 17 17 17 18 18 19 19 20 21 21 22 22 23 24 25 26 26 26 26 26 26 26 26 26 25
16 16 15 15 15 15 15 15 15 15 16 16 15 15 16 16 17 18 19 19 19 20 20 21 21 22 23 23 24 24 25 26 27 28 27 27 27 27 27 27 27 27 26
18 17 17 17 17 17 17 17 18 18 18 18 18 18 18 19 19 20 21 21 21 21 22 23 23 24 25 25 26 27 28 28 29 29 29 29 29 29 28 28 28 28 27
20 19 19 19 19 19 19 20 20 20 20 20 20 21 21 21 21 22 22 23 23 23 24 25 25 25 26 27 28 28 29 29 29 29 30 30 30 30 30 30 29 29 28
22 22 21 21 21 21 20 20 21 21 22 23 23 23 23 23 24 25 25 25 25 26 26 27 28 27 28 28 29 30 30 30 30 30 30 30 30 31 31 31 31 30 29
24 23 22 23 23 23 23 23 23 23 24 24 25 25 25 26 27 28 28 28 28 28 29 29 29 30 30 31 31 32 32 31 31 31 31 31 32 32 32 32 32 32 31
24 24 25 25 25 26 26 26 26 26 26 26 26 26 27 28 29 30 30 30 31 31 31 31 31 32 32 33 33 33 33 33 33 33 33 33 33 32 32 33 33 33 33
25 26 27 27 27 27 27 27 28 28 28 28 27 27 28 29 31 31 31 32 34 34 34 34 33 33 34 35 35 35 35 35 35 35 35 34 34 34 34 33 34 34 34
27 28 28 29 29 29 29 30 30 30 29 30 30 30 30 31 32 33 33 34 34 34 34 34 35 35 35 35 36 36 36 37 37 36 36 36 35 35 34 34 34 35 35
29 30 30 30 31 31 31 31 31 31 31 31 31 32 32 33 33 34 35 35 36 35 35 35 34 35 36 36 36 36 37 37 37 37 37 37 37 37 37 36 36 36 36
31 32 32 33 32 32 32 32 32 32 33 33 34 34 34 34 34 35 35 35 36 36 36 36 36 36 37 36 36 37 37 36 37 37 38 38 38 38 37 37 37 37 37
33 33 33 33 33 33 33 33 33 33 34 34 35 35 34 35 35 35 36 36 37 37 37 37 37 37 37 37 37 37 36 37 38 38 38 38 38 38 38 38 38 37 37
34 34 34 34 34 34 34 35 35 35 35 35 35 35 35 35 36 36 37 37 38 38 38 37 37 37 37 37 37 37 38 38 39 39 39 38 38 38 38 38 38 38 37
35 35 36 35 35 35 36 36 36 35 35 35 35 35 36 37 37 37 37 38 38 38 38 38 38 37 36 36 37 38 39 39 39 39 39 38 38 38 38 38 38 37 36
36 36 36 36 37 36 36 36 36 35 35 36 36 36 37 37 37 37 37 37 37 37 38 38 38 37 37 37 37 38 38 38 38 38 38 38 38 38 37 38 38 37 36
36 36 36 36 36 36 36 36 36 36 35 36 36 36 37 37 37 38 37 37 38 38 38 38 37 37 37 37 36 36 36 37 38 38 37 37 37 37 37 37 37 37 36
36 36 36 36 36 36 36 36 36 36 37 37 37 37 38 38 39 38 38 37 38 38 38 38 38 38 37 37 37 37 36 36 37 37 37 37 36 36 36 36 36 36 36
35 36 36 37 36 36 37 37 38 38 38 39 39 39 39 39 39 39 38 38 38 38 38 38 38 37 37 37 37 37 37 37 37 36 37 36 37 37 37 36 36 36 36
36 36 37 37 37 37 37 38 38 38 38 39 39 39 40 40 39 39 39 39 39 39 39 38 37 37 37 38 38 38 38 38 37 37 37 37 37 37 36 36 36 35 36
36 36 36 36 36 37 37 37 37 38 38 38 39 39 39 39 38 38 39 39 39 39 39 38 38 37 37 37 39 39 38 38 37 37 37 37 36 36 35 35 35 35 35
34 34 34 34 35 35 36 36 37 37 38 38 38 37 38 38 38 38 39 40 39 39 39 39 39 38 38 38 39 38 37 37 37 37 36 36 35 35 34 34 34 34 34

GEFSGL_500_meanwind_294.txt.gz
Wind_Speed
6 7 6 6 6 6 7 7 8 8 8 8 8 9 9 9 10 10 11 11 11 12 13 13 14 14 14 14 15 15 15 16 16 16 17 18 19 19 20 20 20 20 20
8 8 8 8 8 8 8 9 9 10 10 10 11 11 11 12 12 13 13 13 13 13 14 14 15 16 16 16 16 17 17 18 18 18 19 20 21 21 22 21 21 22 22
10 10 10 10 9 10 10 11 11 12 12 12 13 13 14 14 14 15 15 15 15 15 16 16 17 17 17 18 18 19 19 20 20 20 21 21 22 23 23 23 23 23 23
11 11 11 11 11 11 11 12 13 13 14 14 14 15 15 15 16 16 16 17 17 17 17 18 19 19 19 20 20 21 21 22 22 23 23 24 24 24 24 25 25 25 25
13 12 12 12 13 13 13 13 14 14 15 16 16 16 16 17 18 18 18 19 19 19 19 20 21 21 21 22 22 23 24 24 24 25 25 26 26 26 27 27 26 26 26
14 14 13 14 14 14 15 15 16 16 17 17 18 18 18 19 20 20 20 21 21 21 22 22 23 23 23 24 25 25 26 26 27 28 28 28 28 28 28 28 28 28 27
17 17 16 16 16 16 17 17 18 19 19 19 20 20 21 21 22 23 23 24 23 23 24 24 25 26 26 27 27 28 28 29 29 29 29 29 29 29 30 29 29 29 29
19 19 19 18 18 19 19 19 20 21 22 22 22 22 23 23 24 24 25 26 26 26 26 27 28 29 30 30 31 30 30 31 31 31 31 31 31 31 31 30 30 30 30
21 21 21 21 22 22 22 22 23 23 24 24 24 24 24 25 26 27 27 28 28 28 29 30 31 31 32 33 33 33 33 33 33 33 32 32 32 33 33 32 32 31 31
23 23 23 24 24 24 24 25 25 26 25 26 26 26 26 26 27 28 29 30 30 30 30 30 31 32 33 34 34 35 35 35 35 35 34 34 34 34 34 34 34 33 32
24 25 25 25 26 26 26 26 26 27 27 28 28 27 28 27 28 29 30 30 30 31 32 32 32 33 33 34 34 35 35 35 35 35 34 35 35 36 35 35 35 35 34
26 26 26 26 27 27 27 27 27 28 29 29 29 29 29 29 29 30 30 31 31 32 32 33 33 34 34 34 34 34 34 35 35 35 35 35 36 37 36 37 37 37 37
27 27 27 28 28 28 29 29 29 30 31 31 31 30 30 31 31 31 32 32 33 33 34 34 34 35 35 36 35 35 35 36 36 37 37 37 37 38 38 39 39 39 39
28 28 29 29 30 30 31 32 32 32 32 33 32 32 33 33 33 33 33 34 35 35 35 35 36 36 36 37 37 37 37 37 37 38 38 39 39 40 40 40 41 41 41
29 30 30 31 31 32 33 34 34 34 34 34 34 34 35 35 35 36 36 37 37 36 36 35 35 36 36 37 37 38 39 38 38 39 40 41 42 42 42 42 42 42 41
30 31 31 32 33 33 34 34 34 34 34 34 35 36 36 37 38 38 38 38 37 36 37 37 37 38 38 38 38 39 39 39 40 41 42 43 43 43 43 43 43 43 42
33 33 33 33 33 34 34 34 34 35 35 36 37 38 38 38 39 39 38 38 38 38 39 39 39 39 40 40 39 39 40 41 42 43 43 43 44 44 44 43 43 43 42
35 35 34 34 34 34 35 35 35 35 36 37 38 39 40 40 40 40 40 40 40 40 40 40 41 41 41 41 41 41 42 43 43 44 43 43 43 44 43 43 42 42 41
36 35 35 35 36 36 36 36 37 37 37 38 39 40 40 41 41 41 41 41 41 41 41 41 41 41 41 41 42 42 42 43 43 43 43 43 43 43 43 42 41 40 40
36 35 35 35 36 36 37 38 38 38 38 39 40 41 41 41 41 41 42 42 42 42 42 41 40 40 41 42 42 43 42 42 42 41 42 42 42 42 42 41 40 39 39
37 37 36 37 37 37 38 38 38 39 40 41 41 41 41 41 41 41 42 42 41 41 41 40 40 41 42 43 43 43 43 42 42 42 41 41 41 40 40 39 38 38 37
37 38 38 37 37 38 38 38 38 39 40 41 41 41 41 41 42 42 42 42 41 41 40 40 41 42 42 43 43 42 42 42 41 40 40 40 39 39 38 37 37 37 37
36 37 37 37 38 38 38 39 40 40 41 41 41 42 42 42 42 42 42 41 41 41 40 40 41 41 42 42 42 42 41 40 40 39 39 39 38 37 37 37 37 37 37
35 36 36 37 37 38 38 39 39 40 40 40 41 41 41 42 42 42 42 41 41 41 41 40 40 40 41 41 42 42 41 40 39 39 38 38 38 38 37 37 37 36 36
33 34 35 36 37 37 38 38 38 38 38 38 39 39 39 39 39 40 40 40 40 40 40 40 39 39 40 41 41 40 40 40 39 38 37 37 37 37 36 36 36 36 36
32 33 34 34 35 36 36 37 37 37 37 38 38 39 38 38 38 39 39 39 39 39 39 39 39 39 39 39 39 39 40 39 38 37 36 36 36 36 35 35 35 34 34

GEFSGL_500_meanwind_300.txt.gz
Wind_Speed
7 7 8 7 8 8 8 8 8 8 9 9 9 10 10 11 11 12 12 13 14 14 14 14 15 16 16 17 17 17 16 16 17 17 17 18 18 19 19 19 19 20 19
8 8 9 9 9 10 10 10 10 10 10 10 11 12 12 13 13 13 14 15 15 15 16 16 17 17 18 18 18 18 18 18 19 19 19 19 20 20 21 21 21 21 21
10 10 10 10 11 11 12 12 12 12 12 13 13 13 14 14 15 16 16 17 17 17 17 18 18 19 19 20 20 20 20 20 20 21 21 22 22 22 23 23 23 23 23
12 12 12 12 12 12 13 13 14 14 15 15 15 15 15 16 17 17 18 18 18 18 19 20 20 21 21 21 22 22 22 22 22 23 24 24 24 24 25 25 25 25 25
14 14 14 14 14 14 15 15 15 16 16 16 16 16 16 17 18 18 18 19 20 21 21 22 22 22 23 23 24 24 24 24 25 25 26 27 27 27 26 27 27 27 27
16 16 16 16 16 16 16 17 17 17 17 17 17 17 17 18 19 19 20 21 22 22 23 23 23 23 24 24 25 25 26 26 27 27 28 28 28 28 29 29 29 28 28
18 18 18 18 18 18 18 18 18 18 19 19 18 18 19 19 20 22 23 23 24 24 25 25 25 25 25 26 26 27 28 28 28 29 29 29 29 30 30 30 31 31 30
20 20 20 20 20 19 19 19 19 20 20 20 20 21 21 22 23 24 24 25 25 26 26 26 26 27 27 28 29 29 30 30 30 30 30 31 31 31 31 32 31 31 31
22 22 22 21 21 20 21 22 22 22 22 22 23 23 24 24 25 26 27 27 27 27 27 28 28 29 29 30 30 31 31 32 32 32 32 32 33 33 33 33 33 33 32
23 23 23 23 23 23 24 24 24 24 25 25 25 26 26 26 27 28 28 29 29 29 29 29 30 30 31 32 32 32 33 33 34 34 34 34 34 34 35 35 35 34 34
25 25 25 26 26 26 27 27 26 27 27 28 28 28 28 28 29 30 30 30 30 31 31 31 31 32 32 33 34 34 35 35 35 35 35 35 35 35 36 36 36 35 35
27 27 27 28 28 28 28 29 29 29 29 29 30 30 30 30 31 31 31 31 32 32 32 32 33 33 34 34 35 35 36 36 36 36 36 36 37 37 37 37 37 37 37
30 29 28 28 28 29 29 30 30 31 31 32 32 33 33 33 33 33 33 33 33 33 34 34 35 35 35 35 36 36 36 36 36 37 37 38 38 38 38 38 38 38 38
31 31 31 31 31 31 31 32 32 32 33 33 34 33 33 34 34 35 35 34 35 35 35 36 37 37 37 37 37 38 38 37 38 38 38 38 39 39 39 39 39 39 40
32 33 33 33 32 32 33 34 34 34 35 35 34 35 35 35 35 35 35 36 36 36 37 38 38 38 39 39 39 39 39 39 39 39 40 40 40 40 40 40 41 41 40
34 34 34 34 34 35 35 35 36 36 36 36 36 36 36 36 36 36 37 37 37 38 38 38 38 39 40 40 40 40 40 40 40 40 40 40 40 40 41 41 42 41 41
36 37 37 36 37 37 37 37 37 37 37 38 38 38 37 37 37 37 37 37 38 38 39 39 39 40 40 40 40 40 40 40 41 41 41 41 41 41 42 42 42 42 42
37 37 37 37 37 37 38 38 38 38 38 38 38 38 38 38 39 39 39 39 40 40 39 39 39 39 39 39 39 40 40 40 41 41 42 42 42 42 43 43 42 42 41
36 37 36 37 37 37 38 38 39 39 39 38 38 38 38 39 39 39 39 40 40 40 40 39 39 40 40 40 40 40 40 41 41 42 42 42 43 42 42 41 41 41 40
36 35 35 35 36 37 37 38 37 37 38 38 38 38 39 40 41 41 41 41 41 41 40 39 39 40 40 41 41 41 41 41 42 42 43 43 43 42 41 41 41 40 40
34 35 35 35 35 36 37 38 37 37 37 38 38 38 39 39 40 40 40 41 41 41 40 40 40 40 40 40 41 42 43 43 43 43 43 43 43 42 42 41 41 40 39
35 35 35 36 36 36 37 37 37 38 38 38 38 38 38 39 39 39 39 39 40 41 41 41 41 42 43 43 43 43 44 44 44 44 44 43 43 42 41 41 40 40 38
37 38 37 37 37 37 37 37 37 37 37 37 37 37 38 39 39 39 39 39 40 40 40 41 41 42 42 42 43 43 43 43 43 43 43 42 41 41 41 40 39 38 37
37 36 37 37 36 36 36 36 36 37 37 37 37 38 39 39 39 40 40 40 40 40 40 40 40 41 41 41 41 41 41 41 41 41 40 40 39 39 39 38 37 36 36
36 36 35 36 36 36 35 35 35 36 36 36 37 37 38 38 38 38 38 38 38 38 39 39 39 40 40 40 39 39 39 39 39 39 38 38 37 37 37 36 35 35 34
34 34 34 34 35 35 34 34 34 34 35 35 35 35 36 36 36 36 36 36 36 36 36 37 38 39 39 39 39 39 38 38 38 38 37 37 36 35 35 34 34 34 33

GEFSGL_500_meanwind_306.txt.gz
Wind_Speed
9 10 10 10 10 9 9 10 10 10 10 10 11 11 12 12 12 12 12 13 14 14 15 15 16 17 17 18 18 18 19 19 19 19 18 18 18 18 18 18 18 19 20
11 11 11 11 11 11 11 12 12 11 11 11 12 12 13 13 13 13 14 14 15 16 16 17 18 18 18 19 19 20 20 20 20 20 20 20 19 19 20 20 20 20 21
13 12 12 12 13 13 13 13 13 13 13 13 13 14 14 14 14 14 15 16 17 17 18 18 19 19 20 20 21 21 21 21 22 21 21 21 21 21 21 21 22 22 22
14 13 14 14 14 14 15 15 15 15 14 14 14 15 15 15 15 16 17 17 18 18 19 19 20 21 21 22 22 22 23 23 23 23 24 24 23 23 23 24 24 24 24
15 15 15 16 17 17 16 16 16 16 16 15 16 16 16 16 17 18 18 18 19 20 20 21 21 22 23 24 24 25 25 25 25 26 26 26 26 26 26 27 26 26 26
17 17 17 17 18 19 18 18 18 18 17 17 17 18 18 19 19 20 20 20 21 21 22 23 23 23 24 25 26 26 27 27 27 28 28 28 28 28 29 29 29 28 28
19 19 19 19 20 20 20 20 20 20 19 19 19 19 20 21 21 21 21 22 22 23 24 24 24 25 25 26 27 28 29 29 29 30 30 31 31 31 31 31 30 30 30
21 21 21 21 21 21 21 21 22 22 21 21 21 22 22 23 23 24 24 23 24 25 25 25 26 27 27 28 29 30 31 31 32 33 33 33 33 32 33 33 33 33 33
22 22 22 22 23 23 23 23 24 24 24 24 24 24 25 25 25 25 25 25 25 26 27 27 28 29 29 30 31 32 33 33 34 34 34 35 35 34 34 34 34 34 34
23 24 24 25 25 25 25 25 26 26 27 27 26 27 27 27 26 26 27 27 27 28 28 29 29 30 31 32 33 33 33 34 35 35 35 35 35 35 35 35 34 34 35
24 25 26 26 27 27 27 27 28 28 29 28 28 28 29 29 29 29 29 30 30 30 30 30 31 31 32 33 34 34 34 35 35 35 36 36 36 36 36 36 36 36 36
26 27 27 28 29 30 30 30 30 30 30 29 29 30 30 31 32 32 32 33 33 33 33 33 34 34 35 36 36 36 36 36 36 37 37 37 37 37 37 37 37 37 37
27 28 29 29 30 31 31 32 32 32 32 32 32 33 33 33 34 34 35 35 35 35 36 36 36 37 37 38 38 38 38 38 38 39 39 38 37 36 36 38 38 38 37
29 30 30 31 32 32 32 32 33 34 34 35 35 35 34 35 36 36 37 37 38 38 38 39 39 39 39 39 39 39 40 40 40 39 39 38 37 37 38 38 38 38 37
31 31 32 32 33 33 33 33 33 34 35 35 35 35 36 36 37 37 38 39 40 40 40 41 40 40 40 40 40 41 41 42 41 41 40 40 39 39 39 39 39 39 39
33 32 33 33 33 33 33 33 33 34 34 35 35 36 36 37 38 39 40 40 40 41 41 41 41 41 41 41 41 42 42 42 41 41 41 41 40 39 39 39 40 40 40
33 33 33 33 33 34 34 35 35 35 36 36 36 37 38 39 40 41 41 41 42 42 42 42 42 42 42 41 42 42 42 42 42 41 41 41 40 40 40 40 41 41 41
33 33 34 34 34 35 35 36 36 37 36 37 39 39 40 41 42 42 42 42 42 43 43 42 42 42 42 42 42 42 42 41 41 41 41 41 41 41 41 41 41 41 41
34 34 34 35 35 36 36 37 38 38 38 38 38 39 40 41 42 42 42 42 42 42 42 42 42 42 42 42 41 41 40 40 41 41 41 41 42 42 42 42 42 41 41
35 35 35 36 36 37 38 38 38 38 38 38 38 40 40 40 40 40 41 41 40 40 41 42 41 41 41 41 41 41 41 41 41 41 42 43 43 43 43 43 42 41 41
36 36 36 36 37 37 38 38 38 38 39 39 40 40 40 40 40 40 40 40 40 40 40 41 41 41 41 41 41 41 41 41 42 42 42 42 42 42 41 42 41 41 40
35 35 36 36 37 38 38 39 39 39 39 39 40 40 41 40 40 40 40 40 40 41 40 40 40 40 39 39 40 40 41 42 42 42 42 42 43 42 42 41 41 41 40
34 35 35 36 37 38 38 38 39 40 41 40 41 41 40 39 39 39 40 40 40 40 39 39 39 39 39 40 40 41 41 41 41 41 41 41 42 42 41 40 39 39 38
35 35 36 36 37 37 37 38 39 40 40 40 40 39 39 39 39 39 40 40 40 40 40 39 39 39 39 40 40 41 41 41 41 40 40 40 40 40 40 39 39 38 37
36 36 36 36 36 37 38 39 39 39 39 39 39 40 40 40 40 40 40 40 39 38 38 39 38 39 39 40 40 40 39 39 40 39 38 38 38 38 39 39 38 37 36
36 36 36 36 37 37 38 38 39 39 39 39 39 40 41 40 39 39 39 39 38 38 38 38 39 39 40 39 38 38 38 38 38 38 37 37 37 37 37 36 36 36 34